Location: Recife
(8.0585°S, 34.8848°W)
Time: 19:03:15
(UTC-03:00)

Explorer 11/Cluster Stage 4 - Pass Details

Date: 14 April 2026
Orbit: 463 x 1174 km, 28.8° (Epoch: 19 May)

Event Time Altitude Azimuth Distance (km) Brightness Sun altitude
Exits shadow 03:48:49 - 177° (S) 1,942 8.6 -23.6°
Reaches altitude 10° 03:49:12 10° 172° (S) 1,915 8.6 -23.5°
Maximum altitude 03:50:20 11° 157° (SSE) 1,906 8.7 -23.3°
Drops below altitude 10° 03:51:31 10° 142° (SE) 2,011 9.0 -23.0°
Sets 03:56:08 0° 106° (ESE) 3,139 10.8 -21.8°
